owner,sensor,date,latitude,longitude,air_pressure(mBar),qcFlag 
LUMCON,ioos:station:LUMCON:102:1,2009-09-01T00:00:00Z,29.1870,-90.6093,1016.0,11111222 
LUMCON,ioos:station:LUMCON:102:1,2009-09-01T01:00:00Z,29.1870,-90.6093,1015.9,11111222 
LUMCON,ioos:station:LUMCON:102:1,2009-09-01T02:00:00Z,29.1870,-90.6093,1016.0,11111222 
LUMCON,ioos:station:LUMCON:102:1,2009-09-01T03:00:00Z,29.1870,-90.6093,1016.3,11111222 
LUMCON,ioos:station:LUMCON:102:1,2009-09-01T04:00:00Z,29.1870,-90.6093,1016.1,11111222 
LUMCON,ioos:station:LUMCON:102:1,2009-09-01T05:00:00Z,29.1870,-90.6093,1016.0,11111222 
LUMCON,ioos:station:LUMCON:102:1,2009-09-01T06:00:00Z,29.1870,-90.6093,1016.0,11111222 
LUMCON,ioos:station:LUMCON:102:1,2009-09-01T07:00:00Z,29.1870,-90.6093,1016.0,11111222 
LUMCON,ioos:station:LUMCON:102:1,2009-09-01T08:00:00Z,29.1870,-90.6093,1016.1,11111222 
LUMCON,ioos:station:LUMCON:102:1,2009-09-01T09:00:00Z,29.1870,-90.6093,1016.1,11111222 
LUMCON,ioos:station:LUMCON:102:1,2009-09-01T10:00:00Z,29.1870,-90.6093,1016.1,11111222 
LUMCON,ioos:station:LUMCON:102:1,2009-09-01T11:00:00Z,29.1870,-90.6093,1016.4,11111222 
LUMCON,ioos:station:LUMCON:102:1,2009-09-01T12:00:00Z,29.1870,-90.6093,1017.1,11111222 
LUMCON,ioos:station:LUMCON:102:1,2009-09-01T13:00:00Z,29.1870,-90.6093,1017.6,11111222 
LUMCON,ioos:station:LUMCON:102:1,2009-09-01T14:00:00Z,29.1870,-90.6093,1017.8,11111222 
LUMCON,ioos:station:LUMCON:102:1,2009-09-01T15:00:00Z,29.1870,-90.6093,1018.4,11111222 
LUMCON,ioos:station:LUMCON:102:1,2009-09-01T16:00:00Z,29.1870,-90.6093,1019.1,11111222 
LUMCON,ioos:station:LUMCON:102:1,2009-09-01T17:00:00Z,29.1870,-90.6093,1019.0,11111222 
LUMCON,ioos:station:LUMCON:102:1,2009-09-01T18:00:00Z,29.1870,-90.6093,1018.2,11111222 
LUMCON,ioos:station:LUMCON:102:1,2009-09-01T19:00:00Z,29.1870,-90.6093,1017.5,11111222 
LUMCON,ioos:station:LUMCON:102:1,2009-09-01T20:00:00Z,29.1870,-90.6093,1017.0,11111222 
LUMCON,ioos:station:LUMCON:102:1,2009-09-01T21:00:00Z,29.1870,-90.6093,1016.1,11111222 
LUMCON,ioos:station:LUMCON:102:1,2009-09-01T22:00:00Z,29.1870,-90.6093,1015.7,11111222 
LUMCON,ioos:station:LUMCON:102:1,2009-09-01T23:00:00Z,29.1870,-90.6093,1015.4,11111222 
LUMCON,ioos:station:LUMCON:102:1,2009-09-02T00:00:00Z,29.1870,-90.6093,1015.6,11111222 
LUMCON,ioos:station:LUMCON:102:1,2009-09-02T01:00:00Z,29.1870,-90.6093,1015.9,11111222 
LUMCON,ioos:station:LUMCON:102:1,2009-09-02T02:00:00Z,29.1870,-90.6093,1016.5,11111222 
LUMCON,ioos:station:LUMCON:102:1,2009-09-02T03:00:00Z,29.1870,-90.6093,1017.0,11111222 
LUMCON,ioos:station:LUMCON:102:1,2009-09-02T04:00:00Z,29.1870,-90.6093,1016.9,11111222 
LUMCON,ioos:station:LUMCON:102:1,2009-09-02T05:00:00Z,29.1870,-90.6093,1016.9,11111222 
LUMCON,ioos:station:LUMCON:102:1,2009-09-02T06:00:00Z,29.1870,-90.6093,1016.6,11111222 
LUMCON,ioos:station:LUMCON:102:1,2009-09-02T07:00:00Z,29.1870,-90.6093,1016.2,11111222 
LUMCON,ioos:station:LUMCON:102:1,2009-09-02T08:00:00Z,29.1870,-90.6093,1015.9,11111222 
LUMCON,ioos:station:LUMCON:102:1,2009-09-02T09:00:00Z,29.1870,-90.6093,1015.9,11111222 
LUMCON,ioos:station:LUMCON:102:1,2009-09-02T10:00:00Z,29.1870,-90.6093,1015.7,11111222 
LUMCON,ioos:station:LUMCON:102:1,2009-09-02T11:00:00Z,29.1870,-90.6093,1016.0,11111222 
LUMCON,ioos:station:LUMCON:102:1,2009-09-02T12:00:00Z,29.1870,-90.6093,1016.6,11111222 
LUMCON,ioos:station:LUMCON:102:1,2009-09-02T13:00:00Z,29.1870,-90.6093,1016.7,11111222 
LUMCON,ioos:station:LUMCON:102:1,2009-09-02T14:00:00Z,29.1870,-90.6093,1016.6,11111222 
LUMCON,ioos:station:LUMCON:102:1,2009-09-02T15:00:00Z,29.1870,-90.6093,1016.7,11111222 
LUMCON,ioos:station:LUMCON:102:1,2009-09-02T16:00:00Z,29.1870,-90.6093,1016.7,11111222 
LUMCON,ioos:station:LUMCON:102:1,2009-09-02T17:00:00Z,29.1870,-90.6093,1016.6,11111222 
LUMCON,ioos:station:LUMCON:102:1,2009-09-02T18:00:00Z,29.1870,-90.6093,1016.2,11111222 
LUMCON,ioos:station:LUMCON:102:1,2009-09-02T19:00:00Z,29.1870,-90.6093,1015.8,11111222 
LUMCON,ioos:station:LUMCON:102:1,2009-09-02T20:00:00Z,29.1870,-90.6093,1015.2,11111222 
LUMCON,ioos:station:LUMCON:102:1,2009-09-02T21:00:00Z,29.1870,-90.6093,1014.7,11111222 
LUMCON,ioos:station:LUMCON:102:1,2009-09-02T22:00:00Z,29.1870,-90.6093,1014.4,11111222 
LUMCON,ioos:station:LUMCON:102:1,2009-09-02T23:00:00Z,29.1870,-90.6093,1014.3,11111222 
LUMCON,ioos:station:LUMCON:102:1,2009-09-03T00:00:00Z,29.1870,-90.6093,1014.3,11111222 
LUMCON,ioos:station:LUMCON:102:1,2009-09-03T01:00:00Z,29.1870,-90.6093,1014.2,11111222 
LUMCON,ioos:station:LUMCON:102:1,2009-09-03T02:00:00Z,29.1870,-90.6093,1014.5,11111222 
LUMCON,ioos:station:LUMCON:102:1,2009-09-03T03:00:00Z,29.1870,-90.6093,1014.8,11111222 
LUMCON,ioos:station:LUMCON:102:1,2009-09-03T04:00:00Z,29.1870,-90.6093,1015.1,11111222 
LUMCON,ioos:station:LUMCON:102:1,2009-09-03T05:00:00Z,29.1870,-90.6093,1015.3,11111222 
LUMCON,ioos:station:LUMCON:102:1,2009-09-03T06:00:00Z,29.1870,-90.6093,1015.0,11111222 
LUMCON,ioos:station:LUMCON:102:1,2009-09-03T07:00:00Z,29.1870,-90.6093,1014.2,11111222 
LUMCON,ioos:station:LUMCON:102:1,2009-09-03T08:00:00Z,29.1870,-90.6093,1013.9,11111222 
LUMCON,ioos:station:LUMCON:102:1,2009-09-03T09:00:00Z,29.1870,-90.6093,1013.9,11111222 
LUMCON,ioos:station:LUMCON:102:1,2009-09-03T10:00:00Z,29.1870,-90.6093,1013.8,11111222 
LUMCON,ioos:station:LUMCON:102:1,2009-09-03T11:00:00Z,29.1870,-90.6093,1014.0,11111222 
LUMCON,ioos:station:LUMCON:102:1,2009-09-03T12:00:00Z,29.1870,-90.6093,1014.2,11111222 
LUMCON,ioos:station:LUMCON:102:1,2009-09-03T13:00:00Z,29.1870,-90.6093,1014.5,11111222 
LUMCON,ioos:station:LUMCON:102:1,2009-09-03T14:00:00Z,29.1870,-90.6093,1014.7,11111222 
LUMCON,ioos:station:LUMCON:102:1,2009-09-03T15:00:00Z,29.1870,-90.6093,1015.3,11111222 
LUMCON,ioos:station:LUMCON:102:1,2009-09-03T16:00:00Z,29.1870,-90.6093,1015.4,11111222 
LUMCON,ioos:station:LUMCON:102:1,2009-09-03T17:00:00Z,29.1870,-90.6093,1015.3,11111222 
LUMCON,ioos:station:LUMCON:102:1,2009-09-03T18:00:00Z,29.1870,-90.6093,1014.7,11111222 
LUMCON,ioos:station:LUMCON:102:1,2009-09-03T19:00:00Z,29.1870,-90.6093,1014.3,11111222 
LUMCON,ioos:station:LUMCON:102:1,2009-09-03T20:00:00Z,29.1870,-90.6093,1013.5,11111222 
LUMCON,ioos:station:LUMCON:102:1,2009-09-03T21:00:00Z,29.1870,-90.6093,1013.1,11111222 
LUMCON,ioos:station:LUMCON:102:1,2009-09-03T22:00:00Z,29.1870,-90.6093,1012.7,11111222 
LUMCON,ioos:station:LUMCON:102:1,2009-09-03T23:00:00Z,29.1870,-90.6093,1012.2,11111222 
LUMCON,ioos:station:LUMCON:102:1,2009-09-04T00:00:00Z,29.1870,-90.6093,1011.9,11111222 
LUMCON,ioos:station:LUMCON:102:1,2009-09-04T01:00:00Z,29.1870,-90.6093,1012.4,11111222 
LUMCON,ioos:station:LUMCON:102:1,2009-09-04T02:00:00Z,29.1870,-90.6093,1013.3,11111222 
LUMCON,ioos:station:LUMCON:102:1,2009-09-04T03:00:00Z,29.1870,-90.6093,1013.7,11111222 
LUMCON,ioos:station:LUMCON:102:1,2009-09-04T04:00:00Z,29.1870,-90.6093,1013.6,11111222 
LUMCON,ioos:station:LUMCON:102:1,2009-09-04T05:00:00Z,29.1870,-90.6093,1013.2,11111222 
LUMCON,ioos:station:LUMCON:102:1,2009-09-04T06:00:00Z,29.1870,-90.6093,1013.0,11111222 
LUMCON,ioos:station:LUMCON:102:1,2009-09-04T07:00:00Z,29.1870,-90.6093,1012.9,11111222 
LUMCON,ioos:station:LUMCON:102:1,2009-09-04T08:00:00Z,29.1870,-90.6093,1012.8,11111222 
LUMCON,ioos:station:LUMCON:102:1,2009-09-04T09:00:00Z,29.1870,-90.6093,1012.5,11111222 
LUMCON,ioos:station:LUMCON:102:1,2009-09-04T10:00:00Z,29.1870,-90.6093,1012.4,11111222 
LUMCON,ioos:station:LUMCON:102:1,2009-09-04T11:00:00Z,29.1870,-90.6093,1012.2,11111222 
LUMCON,ioos:station:LUMCON:102:1,2009-09-04T12:00:00Z,29.1870,-90.6093,1012.5,11111222 
LUMCON,ioos:station:LUMCON:102:1,2009-09-04T13:00:00Z,29.1870,-90.6093,1013.2,11111222 
LUMCON,ioos:station:LUMCON:102:1,2009-09-04T14:00:00Z,29.1870,-90.6093,1013.8,11111222 
LUMCON,ioos:station:LUMCON:102:1,2009-09-04T15:00:00Z,29.1870,-90.6093,1014.2,11111222 
LUMCON,ioos:station:LUMCON:102:1,2009-09-04T16:00:00Z,29.1870,-90.6093,1014.6,11111222 
LUMCON,ioos:station:LUMCON:102:1,2009-09-04T17:00:00Z,29.1870,-90.6093,1014.5,11111222 
LUMCON,ioos:station:LUMCON:102:1,2009-09-04T18:00:00Z,29.1870,-90.6093,1014.2,11111222 
LUMCON,ioos:station:LUMCON:102:1,2009-09-04T21:00:00Z,29.1870,-90.6093,1013.1,11111222 
LUMCON,ioos:station:LUMCON:102:1,2009-09-04T22:00:00Z,29.1870,-90.6093,1012.9,11111222 
LUMCON,ioos:station:LUMCON:102:1,2009-09-04T23:00:00Z,29.1870,-90.6093,1012.6,11111222 
LUMCON,ioos:station:LUMCON:102:1,2009-09-05T00:00:00Z,29.1870,-90.6093,1012.6,11111222 
LUMCON,ioos:station:LUMCON:102:1,2009-09-05T01:00:00Z,29.1870,-90.6093,1012.5,11111222 
LUMCON,ioos:station:LUMCON:102:1,2009-09-05T02:00:00Z,29.1870,-90.6093,1012.8,11111222 
LUMCON,ioos:station:LUMCON:102:1,2009-09-05T03:00:00Z,29.1870,-90.6093,1013.4,11111222 
LUMCON,ioos:station:LUMCON:102:1,2009-09-05T04:00:00Z,29.1870,-90.6093,1013.9,11111222 
LUMCON,ioos:station:LUMCON:102:1,2009-09-05T05:00:00Z,29.1870,-90.6093,1013.8,11111222 
LUMCON,ioos:station:LUMCON:102:1,2009-09-05T06:00:00Z,29.1870,-90.6093,1013.8,11111222 
LUMCON,ioos:station:LUMCON:102:1,2009-09-05T07:00:00Z,29.1870,-90.6093,1013.5,11111222 
LUMCON,ioos:station:LUMCON:102:1,2009-09-05T08:00:00Z,29.1870,-90.6093,1013.4,11111222 
LUMCON,ioos:station:LUMCON:102:1,2009-09-05T09:00:00Z,29.1870,-90.6093,1013.2,11111222 
LUMCON,ioos:station:LUMCON:102:1,2009-09-05T10:00:00Z,29.1870,-90.6093,1013.3,11111222 
LUMCON,ioos:station:LUMCON:102:1,2009-09-05T11:00:00Z,29.1870,-90.6093,1013.8,11111222 
LUMCON,ioos:station:LUMCON:102:1,2009-09-05T12:00:00Z,29.1870,-90.6093,1014.4,11111222 
LUMCON,ioos:station:LUMCON:102:1,2009-09-05T13:00:00Z,29.1870,-90.6093,1014.8,11111222 
LUMCON,ioos:station:LUMCON:102:1,2009-09-05T14:00:00Z,29.1870,-90.6093,1014.9,11111222 
LUMCON,ioos:station:LUMCON:102:1,2009-09-05T15:00:00Z,29.1870,-90.6093,1015.8,11111222 
LUMCON,ioos:station:LUMCON:102:1,2009-09-05T16:00:00Z,29.1870,-90.6093,1016.1,11111222 
LUMCON,ioos:station:LUMCON:102:1,2009-09-05T17:00:00Z,29.1870,-90.6093,1016.2,11111222 
LUMCON,ioos:station:LUMCON:102:1,2009-09-05T18:00:00Z,29.1870,-90.6093,1016.0,11111222 
LUMCON,ioos:station:LUMCON:102:1,2009-09-05T19:00:00Z,29.1870,-90.6093,1015.8,11111222 
LUMCON,ioos:station:LUMCON:102:1,2009-09-05T20:00:00Z,29.1870,-90.6093,1015.0,11111222 
LUMCON,ioos:station:LUMCON:102:1,2009-09-05T21:00:00Z,29.1870,-90.6093,1014.4,11111222 
LUMCON,ioos:station:LUMCON:102:1,2009-09-05T22:00:00Z,29.1870,-90.6093,1014.2,11111222 
LUMCON,ioos:station:LUMCON:102:1,2009-09-05T23:00:00Z,29.1870,-90.6093,1014.3,11111222 
LUMCON,ioos:station:LUMCON:102:1,2009-09-06T00:00:00Z,29.1870,-90.6093,1014.5,11111222 
LUMCON,ioos:station:LUMCON:102:1,2009-09-06T01:00:00Z,29.1870,-90.6093,1014.6,11111222 
LUMCON,ioos:station:LUMCON:102:1,2009-09-06T02:00:00Z,29.1870,-90.6093,1015.4,11111222 
LUMCON,ioos:station:LUMCON:102:1,2009-09-06T03:00:00Z,29.1870,-90.6093,1015.8,11111222 
LUMCON,ioos:station:LUMCON:102:1,2009-09-06T04:00:00Z,29.1870,-90.6093,1015.8,11111222 
LUMCON,ioos:station:LUMCON:102:1,2009-09-06T05:00:00Z,29.1870,-90.6093,1015.8,11111222 
LUMCON,ioos:station:LUMCON:102:1,2009-09-06T06:00:00Z,29.1870,-90.6093,1015.6,11111222 
LUMCON,ioos:station:LUMCON:102:1,2009-09-06T07:00:00Z,29.1870,-90.6093,1015.0,11111222 
LUMCON,ioos:station:LUMCON:102:1,2009-09-06T08:00:00Z,29.1870,-90.6093,1014.9,11111222 
LUMCON,ioos:station:LUMCON:102:1,2009-09-06T09:00:00Z,29.1870,-90.6093,1014.9,11111222 
LUMCON,ioos:station:LUMCON:102:1,2009-09-06T10:00:00Z,29.1870,-90.6093,1015.2,11111222 
LUMCON,ioos:station:LUMCON:102:1,2009-09-06T11:00:00Z,29.1870,-90.6093,1015.4,11111222 
LUMCON,ioos:station:LUMCON:102:1,2009-09-06T12:00:00Z,29.1870,-90.6093,1015.9,11111222 
LUMCON,ioos:station:LUMCON:102:1,2009-09-06T13:00:00Z,29.1870,-90.6093,1016.5,11111222 
LUMCON,ioos:station:LUMCON:102:1,2009-09-06T14:00:00Z,29.1870,-90.6093,1016.3,11111222 
LUMCON,ioos:station:LUMCON:102:1,2009-09-06T15:00:00Z,29.1870,-90.6093,1016.6,11111222 
LUMCON,ioos:station:LUMCON:102:1,2009-09-06T16:00:00Z,29.1870,-90.6093,1017.2,11111222 
LUMCON,ioos:station:LUMCON:102:1,2009-09-06T17:00:00Z,29.1870,-90.6093,1017.3,11111222 
LUMCON,ioos:station:LUMCON:102:1,2009-09-06T18:00:00Z,29.1870,-90.6093,1016.8,11111222 
LUMCON,ioos:station:LUMCON:102:1,2009-09-06T19:00:00Z,29.1870,-90.6093,1016.3,11111222 
LUMCON,ioos:station:LUMCON:102:1,2009-09-06T20:00:00Z,29.1870,-90.6093,1015.8,11111222 
LUMCON,ioos:station:LUMCON:102:1,2009-09-06T21:00:00Z,29.1870,-90.6093,1015.0,11111222 
LUMCON,ioos:station:LUMCON:102:1,2009-09-06T22:00:00Z,29.1870,-90.6093,1014.8,11111222 
LUMCON,ioos:station:LUMCON:102:1,2009-09-06T23:00:00Z,29.1870,-90.6093,1014.8,11111222 
LUMCON,ioos:station:LUMCON:102:1,2009-09-07T00:00:00Z,29.1870,-90.6093,1015.2,11111222 
LUMCON,ioos:station:LUMCON:102:1,2009-09-07T01:00:00Z,29.1870,-90.6093,1015.9,11111222 
LUMCON,ioos:station:LUMCON:102:1,2009-09-07T02:00:00Z,29.1870,-90.6093,1015.2,11111222 
LUMCON,ioos:station:LUMCON:102:1,2009-09-07T03:00:00Z,29.1870,-90.6093,1015.3,11111222 
LUMCON,ioos:station:LUMCON:102:1,2009-09-07T04:00:00Z,29.1870,-90.6093,1015.5,11111222 
LUMCON,ioos:station:LUMCON:102:1,2009-09-07T05:00:00Z,29.1870,-90.6093,1015.6,11111222 
LUMCON,ioos:station:LUMCON:102:1,2009-09-07T06:00:00Z,29.1870,-90.6093,1015.2,11111222 
LUMCON,ioos:station:LUMCON:102:1,2009-09-07T07:00:00Z,29.1870,-90.6093,1014.9,11111222 
LUMCON,ioos:station:LUMCON:102:1,2009-09-07T08:00:00Z,29.1870,-90.6093,1014.4,11111222 
LUMCON,ioos:station:LUMCON:102:1,2009-09-07T09:00:00Z,29.1870,-90.6093,1014.3,11111222 
LUMCON,ioos:station:LUMCON:102:1,2009-09-07T10:00:00Z,29.1870,-90.6093,1014.1,11111222 
LUMCON,ioos:station:LUMCON:102:1,2009-09-07T11:00:00Z,29.1870,-90.6093,1014.1,11111222 
LUMCON,ioos:station:LUMCON:102:1,2009-09-07T12:00:00Z,29.1870,-90.6093,1014.4,11111222 
LUMCON,ioos:station:LUMCON:102:1,2009-09-07T13:00:00Z,29.1870,-90.6093,1015.1,11111222 
LUMCON,ioos:station:LUMCON:102:1,2009-09-07T14:00:00Z,29.1870,-90.6093,1015.5,11111222 
LUMCON,ioos:station:LUMCON:102:1,2009-09-07T15:00:00Z,29.1870,-90.6093,1015.8,11111222 
LUMCON,ioos:station:LUMCON:102:1,2009-09-07T16:00:00Z,29.1870,-90.6093,1015.7,11111222 
LUMCON,ioos:station:LUMCON:102:1,2009-09-07T17:00:00Z,29.1870,-90.6093,1015.5,11111222 
LUMCON,ioos:station:LUMCON:102:1,2009-09-07T18:00:00Z,29.1870,-90.6093,1015.0,11111222 
LUMCON,ioos:station:LUMCON:102:1,2009-09-07T19:00:00Z,29.1870,-90.6093,1014.6,11111222 
LUMCON,ioos:station:LUMCON:102:1,2009-09-07T20:00:00Z,29.1870,-90.6093,1013.8,11111222 
LUMCON,ioos:station:LUMCON:102:1,2009-09-07T21:00:00Z,29.1870,-90.6093,1013.4,11111222 
LUMCON,ioos:station:LUMCON:102:1,2009-09-07T22:00:00Z,29.1870,-90.6093,1013.3,11111222 
LUMCON,ioos:station:LUMCON:102:1,2009-09-07T23:00:00Z,29.1870,-90.6093,1012.9,11111222 
LUMCON,ioos:station:LUMCON:102:1,2009-09-08T00:00:00Z,29.1870,-90.6093,1013.3,11111222 
LUMCON,ioos:station:LUMCON:102:1,2009-09-08T01:00:00Z,29.1870,-90.6093,1013.5,11111222 
LUMCON,ioos:station:LUMCON:102:1,2009-09-08T02:00:00Z,29.1870,-90.6093,1013.7,11111222 
LUMCON,ioos:station:LUMCON:102:1,2009-09-08T03:00:00Z,29.1870,-90.6093,1013.8,11111222 
LUMCON,ioos:station:LUMCON:102:1,2009-09-08T04:00:00Z,29.1870,-90.6093,1013.5,11111222 
LUMCON,ioos:station:LUMCON:102:1,2009-09-08T05:00:00Z,29.1870,-90.6093,1012.9,11111222 
LUMCON,ioos:station:LUMCON:102:1,2009-09-08T06:00:00Z,29.1870,-90.6093,1012.8,11111222 
LUMCON,ioos:station:LUMCON:102:1,2009-09-08T07:00:00Z,29.1870,-90.6093,1012.6,11111222 
LUMCON,ioos:station:LUMCON:102:1,2009-09-08T08:00:00Z,29.1870,-90.6093,1012.4,11111222 
LUMCON,ioos:station:LUMCON:102:1,2009-09-08T09:00:00Z,29.1870,-90.6093,1012.5,11111222 
LUMCON,ioos:station:LUMCON:102:1,2009-09-08T10:00:00Z,29.1870,-90.6093,1012.7,11111222 
LUMCON,ioos:station:LUMCON:102:1,2009-09-08T11:00:00Z,29.1870,-90.6093,1012.9,11111222 
LUMCON,ioos:station:LUMCON:102:1,2009-09-08T12:00:00Z,29.1870,-90.6093,1013.5,11111222 
LUMCON,ioos:station:LUMCON:102:1,2009-09-08T13:00:00Z,29.1870,-90.6093,1013.7,11111222 
LUMCON,ioos:station:LUMCON:102:1,2009-09-08T14:00:00Z,29.1870,-90.6093,1014.0,11111222 
LUMCON,ioos:station:LUMCON:102:1,2009-09-08T15:00:00Z,29.1870,-90.6093,1014.6,11111222 
LUMCON,ioos:station:LUMCON:102:1,2009-09-08T16:00:00Z,29.1870,-90.6093,1014.5,11111222 
LUMCON,ioos:station:LUMCON:102:1,2009-09-08T17:00:00Z,29.1870,-90.6093,1014.5,11111222 
LUMCON,ioos:station:LUMCON:102:1,2009-09-08T18:00:00Z,29.1870,-90.6093,1014.2,11111222 
LUMCON,ioos:station:LUMCON:102:1,2009-09-08T19:00:00Z,29.1870,-90.6093,1013.4,11111222 
LUMCON,ioos:station:LUMCON:102:1,2009-09-08T20:00:00Z,29.1870,-90.6093,1012.8,11111222 
LUMCON,ioos:station:LUMCON:102:1,2009-09-08T21:00:00Z,29.1870,-90.6093,1012.3,11111222 
LUMCON,ioos:station:LUMCON:102:1,2009-09-08T22:00:00Z,29.1870,-90.6093,1012.3,11111222 
LUMCON,ioos:station:LUMCON:102:1,2009-09-08T23:00:00Z,29.1870,-90.6093,1012.0,11111222 
LUMCON,ioos:station:LUMCON:102:1,2009-09-09T00:00:00Z,29.1870,-90.6093,1012.1,11111222 
LUMCON,ioos:station:LUMCON:102:1,2009-09-09T01:00:00Z,29.1870,-90.6093,1012.1,11111222 
LUMCON,ioos:station:LUMCON:102:1,2009-09-09T02:00:00Z,29.1870,-90.6093,1012.5,11111222 
LUMCON,ioos:station:LUMCON:102:1,2009-09-09T03:00:00Z,29.1870,-90.6093,1012.9,11111222 
LUMCON,ioos:station:LUMCON:102:1,2009-09-09T04:00:00Z,29.1870,-90.6093,1013.2,11111222 
LUMCON,ioos:station:LUMCON:102:1,2009-09-09T05:00:00Z,29.1870,-90.6093,1013.0,11111222 
LUMCON,ioos:station:LUMCON:102:1,2009-09-09T06:00:00Z,29.1870,-90.6093,1013.3,11111222 
LUMCON,ioos:station:LUMCON:102:1,2009-09-09T07:00:00Z,29.1870,-90.6093,1013.1,11111222 
LUMCON,ioos:station:LUMCON:102:1,2009-09-09T08:00:00Z,29.1870,-90.6093,1013.1,11111222 
LUMCON,ioos:station:LUMCON:102:1,2009-09-09T09:00:00Z,29.1870,-90.6093,1013.0,11111222 
LUMCON,ioos:station:LUMCON:102:1,2009-09-09T10:00:00Z,29.1870,-90.6093,1013.1,11111222 
LUMCON,ioos:station:LUMCON:102:1,2009-09-09T11:00:00Z,29.1870,-90.6093,1012.9,11111222 
LUMCON,ioos:station:LUMCON:102:1,2009-09-09T12:00:00Z,29.1870,-90.6093,1014.0,11111222 
LUMCON,ioos:station:LUMCON:102:1,2009-09-09T13:00:00Z,29.1870,-90.6093,1014.2,11111222 
LUMCON,ioos:station:LUMCON:102:1,2009-09-09T14:00:00Z,29.1870,-90.6093,1014.5,11111222 
LUMCON,ioos:station:LUMCON:102:1,2009-09-09T15:00:00Z,29.1870,-90.6093,1015.2,11111222 
LUMCON,ioos:station:LUMCON:102:1,2009-09-09T16:00:00Z,29.1870,-90.6093,1014.9,11111222 
LUMCON,ioos:station:LUMCON:102:1,2009-09-09T17:00:00Z,29.1870,-90.6093,1015.0,11111222 
LUMCON,ioos:station:LUMCON:102:1,2009-09-09T18:00:00Z,29.1870,-90.6093,1014.7,11111222 
LUMCON,ioos:station:LUMCON:102:1,2009-09-09T19:00:00Z,29.1870,-90.6093,1014.5,11111222 
LUMCON,ioos:station:LUMCON:102:1,2009-09-09T20:00:00Z,29.1870,-90.6093,1013.7,11111222 
LUMCON,ioos:station:LUMCON:102:1,2009-09-09T21:00:00Z,29.1870,-90.6093,1013.4,11111222 
LUMCON,ioos:station:LUMCON:102:1,2009-09-09T22:00:00Z,29.1870,-90.6093,1013.2,11111222 
LUMCON,ioos:station:LUMCON:102:1,2009-09-09T23:00:00Z,29.1870,-90.6093,1013.5,11111222 
LUMCON,ioos:station:LUMCON:102:1,2009-09-10T00:00:00Z,29.1870,-90.6093,1013.5,11111222 
LUMCON,ioos:station:LUMCON:102:1,2009-09-10T01:00:00Z,29.1870,-90.6093,1013.7,11111222 
LUMCON,ioos:station:LUMCON:102:1,2009-09-10T02:00:00Z,29.1870,-90.6093,1013.4,11111222 
LUMCON,ioos:station:LUMCON:102:1,2009-09-10T03:00:00Z,29.1870,-90.6093,1013.4,11111222 
LUMCON,ioos:station:LUMCON:102:1,2009-09-10T04:00:00Z,29.1870,-90.6093,1013.6,11111222 
LUMCON,ioos:station:LUMCON:102:1,2009-09-10T05:00:00Z,29.1870,-90.6093,1013.3,11111222 
LUMCON,ioos:station:LUMCON:102:1,2009-09-10T06:00:00Z,29.1870,-90.6093,1013.2,11111222 
LUMCON,ioos:station:LUMCON:102:1,2009-09-10T07:00:00Z,29.1870,-90.6093,1012.9,11111222 
LUMCON,ioos:station:LUMCON:102:1,2009-09-10T08:00:00Z,29.1870,-90.6093,1013.0,11111222 
LUMCON,ioos:station:LUMCON:102:1,2009-09-10T09:00:00Z,29.1870,-90.6093,1012.7,11111222 
LUMCON,ioos:station:LUMCON:102:1,2009-09-10T10:00:00Z,29.1870,-90.6093,1012.8,11111222 
LUMCON,ioos:station:LUMCON:102:1,2009-09-10T11:00:00Z,29.1870,-90.6093,1012.9,11111222 
LUMCON,ioos:station:LUMCON:102:1,2009-09-10T12:00:00Z,29.1870,-90.6093,1013.6,11111222 
LUMCON,ioos:station:LUMCON:102:1,2009-09-10T17:00:00Z,29.1870,-90.6093,1015.7,11111222 
LUMCON,ioos:station:LUMCON:102:1,2009-09-10T18:00:00Z,29.1870,-90.6093,1015.4,11111222 
LUMCON,ioos:station:LUMCON:102:1,2009-09-10T22:00:00Z,29.1870,-90.6093,1013.1,11111222 
LUMCON,ioos:station:LUMCON:102:1,2009-09-10T23:00:00Z,29.1870,-90.6093,1013.5,11111222 
LUMCON,ioos:station:LUMCON:102:1,2009-09-11T00:00:00Z,29.1870,-90.6093,1013.7,11111222 
LUMCON,ioos:station:LUMCON:102:1,2009-09-11T01:00:00Z,29.1870,-90.6093,1013.8,11111222 
LUMCON,ioos:station:LUMCON:102:1,2009-09-11T02:00:00Z,29.1870,-90.6093,1014.2,11111222 
LUMCON,ioos:station:LUMCON:102:1,2009-09-11T03:00:00Z,29.1870,-90.6093,1014.8,11111222 
LUMCON,ioos:station:LUMCON:102:1,2009-09-11T04:00:00Z,29.1870,-90.6093,1015.0,11111222 
LUMCON,ioos:station:LUMCON:102:1,2009-09-11T05:00:00Z,29.1870,-90.6093,1014.2,11111222 
LUMCON,ioos:station:LUMCON:102:1,2009-09-11T06:00:00Z,29.1870,-90.6093,1013.9,11111222 
LUMCON,ioos:station:LUMCON:102:1,2009-09-11T07:00:00Z,29.1870,-90.6093,1013.5,11111222 
LUMCON,ioos:station:LUMCON:102:1,2009-09-11T08:00:00Z,29.1870,-90.6093,1013.1,11111222 
LUMCON,ioos:station:LUMCON:102:1,2009-09-11T09:00:00Z,29.1870,-90.6093,1013.0,11111222 
LUMCON,ioos:station:LUMCON:102:1,2009-09-11T10:00:00Z,29.1870,-90.6093,1012.7,11111222 
LUMCON,ioos:station:LUMCON:102:1,2009-09-11T12:00:00Z,29.1870,-90.6093,1013.0,11111222 
LUMCON,ioos:station:LUMCON:102:1,2009-09-11T13:00:00Z,29.1870,-90.6093,1013.2,11111222 
LUMCON,ioos:station:LUMCON:102:1,2009-09-11T14:00:00Z,29.1870,-90.6093,1013.3,11111222 
LUMCON,ioos:station:LUMCON:102:1,2009-09-11T15:00:00Z,29.1870,-90.6093,1013.0,11111222 
LUMCON,ioos:station:LUMCON:102:1,2009-09-11T16:00:00Z,29.1870,-90.6093,1013.6,11111222 
LUMCON,ioos:station:LUMCON:102:1,2009-09-11T17:00:00Z,29.1870,-90.6093,1013.4,11111222 
LUMCON,ioos:station:LUMCON:102:1,2009-09-11T18:00:00Z,29.1870,-90.6093,1013.1,11111222 
LUMCON,ioos:station:LUMCON:102:1,2009-09-11T19:00:00Z,29.1870,-90.6093,1012.2,11111222 
LUMCON,ioos:station:LUMCON:102:1,2009-09-11T21:00:00Z,29.1870,-90.6093,1011.4,11111222 
LUMCON,ioos:station:LUMCON:102:1,2009-09-11T22:00:00Z,29.1870,-90.6093,1011.4,11111222 
LUMCON,ioos:station:LUMCON:102:1,2009-09-12T16:00:00Z,29.1870,-90.6093,1009.1,11111222 
LUMCON,ioos:station:LUMCON:102:1,2009-09-12T17:00:00Z,29.1870,-90.6093,1008.7,11111222 
LUMCON,ioos:station:LUMCON:102:1,2009-09-12T18:00:00Z,29.1870,-90.6093,1008.1,11111222 
LUMCON,ioos:station:LUMCON:102:1,2009-09-12T19:00:00Z,29.1870,-90.6093,1007.7,11111222 
LUMCON,ioos:station:LUMCON:102:1,2009-09-12T20:00:00Z,29.1870,-90.6093,1007.1,11111222 
LUMCON,ioos:station:LUMCON:102:1,2009-09-12T21:00:00Z,29.1870,-90.6093,1006.8,11111222 
LUMCON,ioos:station:LUMCON:102:1,2009-09-12T22:00:00Z,29.1870,-90.6093,1007.3,11111222 
LUMCON,ioos:station:LUMCON:102:1,2009-09-12T23:00:00Z,29.1870,-90.6093,1007.0,11111222 
LUMCON,ioos:station:LUMCON:102:1,2009-09-13T00:00:00Z,29.1870,-90.6093,1007.0,11111222 
LUMCON,ioos:station:LUMCON:102:1,2009-09-13T01:00:00Z,29.1870,-90.6093,1007.0,11111222 
LUMCON,ioos:station:LUMCON:102:1,2009-09-13T02:00:00Z,29.1870,-90.6093,1007.7,11111222 
LUMCON,ioos:station:LUMCON:102:1,2009-09-13T03:00:00Z,29.1870,-90.6093,1007.7,11111222 
LUMCON,ioos:station:LUMCON:102:1,2009-09-13T04:00:00Z,29.1870,-90.6093,1008.0,11111222 
LUMCON,ioos:station:LUMCON:102:1,2009-09-13T05:00:00Z,29.1870,-90.6093,1007.8,11111222 
LUMCON,ioos:station:LUMCON:102:1,2009-09-13T06:00:00Z,29.1870,-90.6093,1007.8,11111222 
LUMCON,ioos:station:LUMCON:102:1,2009-09-13T07:00:00Z,29.1870,-90.6093,1008.0,11111222 
LUMCON,ioos:station:LUMCON:102:1,2009-09-13T08:00:00Z,29.1870,-90.6093,1007.6,11111222 
LUMCON,ioos:station:LUMCON:102:1,2009-09-13T09:00:00Z,29.1870,-90.6093,1007.1,11111222 
LUMCON,ioos:station:LUMCON:102:1,2009-09-13T10:00:00Z,29.1870,-90.6093,1007.3,11111222 
LUMCON,ioos:station:LUMCON:102:1,2009-09-13T11:00:00Z,29.1870,-90.6093,1008.1,11111222 